BREEZE-M DEB

Last updated on July 6, 2021, 3:22 p.m. UTC

1 38971U 12044DE  21186.57772459  .00020622  50686-5  32053-3 0  9991
2 38971  50.0735 142.6473 1323163 242.0547 104.0299 12.98539967375199
UTC
Height (km)
Latitude
Longitude
Inclination
Orbital Period
UTC large
Height (km)
Speed (km/s)
/
Latitude / Longitude
Inclination (degrees)
Orbital Period (minutes)
Azimuth
Elevation
Range (km)
Doppler Factor
iOS Compass Heading
iOS Angle